COSMOS 1275 DEB, 13481

Orbit data source: Space-Track

COSMOS 1275 DEB, 13481 is space debris in LEO originally from a launch on Thu, 04 Jun 1981 UTC launched from the Plesetsk Missile And Space Complex (PKMTR). Debris objects in space refer to the collection of defunct objects orbiting the Earth. Examples of debris include non-operational satellites, rocket bodies, and fragments generated from explosions, collisions, or faulty payload assembly.

Loading next visibility...
Identifier
13481, 1981-053GB
Orbit
LEO
Country
Flag of CISCIS
Related business
Manufacturer
Unknown
Mission
Spacecraft
Bus & Motor
Unknown
Mass
Unknown
Launch date (UTC)
1981-06-04 (45 years ago)
Launch vehicle
Unknown
Launch site
Plesetsk Missile And Space Complex (PKMTR)
Object type
Payload
Rocket body
Debris
Shape & HBR
Unknown shape, 0.1 m
Radar Cross Section
Small (<0.1 m²)

Expand to show TLE details & history
Last TLE update: 1 day ago

TLE from 1 day ago
0 COSMOS 1275 DEB
1 13481U 81053GB  26105.32468526  .00118387  00000-0  36976-2 0  9995
2 13481  82.9570  59.8598 0016731 128.3513 231.9236 15.32568112258190
Epoch: 2026-04-15T07:47Z
TLE epoch observation values (Epoch: 2026-04-15T07:47:32.806Z)
Latitude
-0.00009°
Longitude
99.48489°
Altitude
478.349 km
Speed
7.623 km/s
True Right ascension
03h 59m 26s
True Declination
0° 00' 00"
Sunlit
Object was in daylight at epoch
Visualization orbit readout
Latitude
Unknown
Longitude
Unknown
Altitude
Unknown
Speed
Unknown
Apparent Right ascension
Unknown
Apparent Declination
Unknown
Sunlit
N/A
Visualization observer readout
Local Sidereal Time
16:24:32
Azimuth
Unknown
Elevation
Unknown
Doppler factor
Unknown
Orbital elements
Apogee altitude
476.537 km
Perigee altitude
453.638 km
Semi-major axis
6,843.224 km
Eccentricity
0.00167
Inclination
82.957°
RAAN
59.8598°
Arg. of periapsis
128.3513°
True anomaly
231.77287°
Mean anomaly
231.9236°
Eccentric anomaly
231.84822°
Mean motion
3.834 °/min
Orbital period
93.9 mins
BSTAR
0.0036976
Loading maneuver chart data...
Computing Atmospheric mass density...
Loading historical data...
Loading historical data...
Loading historical data...
Loading historical data...
Loading historical data...
Loading historical data...
Loading historical data...

Documentation

Showing up to 5 results
|